EN

Hourly Weather Al-Jahra

Today, 19 January, Tuesday

Time Temperature Precipitation Wind Pressure Humidity
00:00 +17°C° 0 mm 3 mps 759 mmHg 40%
01:00 +17°C° 0 mm 3 mps 759 mmHg 40%
02:00 +16°C° 0 mm 3 mps 759 mmHg 40%
03:00 +16°C° 0 mm 3 mps 759 mmHg 44%
04:00 +16°C° 0 mm 3 mps 759 mmHg 45%
05:00 +16°C° 0 mm 3 mps 759 mmHg 46%
06:00 +14°C° 0 mm 3 mps 760 mmHg 47%
07:00 +16°C° 0 mm 2 mps 760 mmHg 44%
08:00 +17°C° 0 mm 2 mps 759 mmHg 42%
09:00 +17°C° 0 mm 2 mps 760 mmHg 39%
10:00 +19°C° 0 mm 1 mps 760 mmHg 36%
11:00 +20°C° 0 mm 1 mps 760 mmHg 34%
12:00 +19°C° 0 mm 0 mps 760 mmHg 31%
13:00 +22°C° 0 mm 1 mps 759 mmHg 30%
14:00 +22°C° 0 mm 1 mps 758 mmHg 29%
15:00 +22°C° 0 mm 1 mps 758 mmHg 30%
16:00 +21°C° 0 mm 1 mps 758 mmHg 32%
17:00 +21°C° 0 mm 1 mps 758 mmHg 34%
18:00 +20°C° 0 mm 1 mps 758 mmHg 36%
19:00 +20°C° 0 mm 1 mps 758 mmHg 37%
20:00 +19°C° 0 mm 1 mps 758 mmHg 38%
21:00 +19°C° 0 mm 1 mps 758 mmHg 39%
22:00 +18°C° 0 mm 1 mps 758 mmHg 40%
23:00 +18°C° 0 mm 1 mps 758 mmHg 41%

Tomorrow, 20 January, Wednesday

Time Temperature Precipitation Wind Pressure Humidity
00:00 +18°C° 0 mm 1 mps 758 mmHg 42%
01:00 +16°C° 0 mm 1 mps 758 mmHg 43%
02:00 +16°C° 0 mm 1 mps 757 mmHg 44%
03:00 +16°C° 0 mm 1 mps 757 mmHg 45%
04:00 +16°C° 0 mm 1 mps 757 mmHg 45%
05:00 +16°C° 0 mm 2 mps 757 mmHg 45%
06:00 +16°C° 0 mm 2 mps 757 mmHg 45%
07:00 +16°C° 0 mm 3 mps 757 mmHg 42%
08:00 +17°C° 0 mm 4 mps 757 mmHg 40%
09:00 +18°C° 0 mm 4 mps 757 mmHg 38%
10:00 +19°C° 0 mm 5 mps 756 mmHg 36%
11:00 +20°C° 0 mm 6 mps 756 mmHg 34%
12:00 +21°C° 0 mm 7 mps 756 mmHg 32%
13:00 +22°C° 0 mm 7 mps 755 mmHg 32%
14:00 +22°C° 0 mm 7 mps 754 mmHg 32%
15:00 +23°C° 0 mm 7 mps 753 mmHg 31%
16:00 +22°C° 0 mm 6 mps 753 mmHg 34%
17:00 +21°C° 0 mm 6 mps 753 mmHg 36%
18:00 +21°C° 0 mm 5 mps 753 mmHg 38%
19:00 +20°C° 0 mm 7 mps 754 mmHg 38%
20:00 +20°C° 0 mm 8 mps 754 mmHg 37%
21:00 +19°C° 0 mm 9 mps 755 mmHg 37%
22:00 +18°C° 0 mm 10 mps 755 mmHg 39%
23:00 +17°C° 0 mm 10 mps 756 mmHg 41%

Day after tomorrow, 21 January, Thursday

Time Temperature Precipitation Wind Pressure Humidity
00:00 +16°C° 0 mm 11 mps 757 mmHg 42%
01:00 +14°C° 0 mm 10 mps 757 mmHg 47%
02:00 +13°C° 0 mm 10 mps 758 mmHg 51%
03:00 +12°C° 0 mm 9 mps 758 mmHg 56%
04:00 +12°C° 0 mm 8 mps 759 mmHg 54%
05:00 +11°C° 0 mm 7 mps 760 mmHg 53%
06:00 +11°C° 0 mm 6 mps 761 mmHg 51%
07:00 +11°C° 0 mm 7 mps 761 mmHg 49%
08:00 +12°C° 0 mm 8 mps 762 mmHg 47%
09:00 +12°C° 0 mm 9 mps 762 mmHg 45%
10:00 +13°C° 0 mm 8 mps 763 mmHg 42%
11:00 +13°C° 0 mm 8 mps 763 mmHg 39%
12:00 +15°C° 0 mm 8 mps 763 mmHg 36%
13:00 +15°C° 0 mm 8 mps 763 mmHg 33%
14:00 +15°C° 0 mm 8 mps 762 mmHg 30%
15:00 +15°C° 0 mm 8 mps 762 mmHg 27%
16:00 +13°C° 0 mm 8 mps 762 mmHg 27%
17:00 +12°C° 0 mm 7 mps 763 mmHg 27%
18:00 +12°C° 0 mm 7 mps 763 mmHg 27%
19:00 +11°C° 0 mm 7 mps 763 mmHg 26%
20:00 +10°C° 0 mm 7 mps 764 mmHg 25%
21:00 +10°C° 0 mm 7 mps 764 mmHg 24%
22:00 +9°C° 0 mm 7 mps 764 mmHg 24%
23:00 +9°C° 0 mm 7 mps 764 mmHg 24%

22 January, Friday

Time Temperature Precipitation Wind Pressure Humidity
00:00 +8°C° 0 mm 7 mps 764 mmHg 24%
01:00 +8°C° 0 mm 7 mps 764 mmHg 25%
02:00 +8°C° 0 mm 7 mps 764 mmHg 27%
03:00 +6°C° 0 mm 7 mps 764 mmHg 28%
04:00 +6°C° 0 mm 7 mps 764 mmHg 29%
05:00 +5°C° 0 mm 7 mps 764 mmHg 30%
06:00 +5°C° 0 mm 7 mps 764 mmHg 32%
07:00 +6°C° 0 mm 7 mps 764 mmHg 30%
08:00 +6°C° 0 mm 8 mps 765 mmHg 29%
09:00 +7°C° 0 mm 8 mps 765 mmHg 28%
10:00 +9°C° 0 mm 8 mps 765 mmHg 26%
11:00 +10°C° 0 mm 9 mps 765 mmHg 24%
12:00 +11°C° 0 mm 9 mps 764 mmHg 22%
13:00 +12°C° 0 mm 8 mps 764 mmHg 21%
14:00 +12°C° 0 mm 8 mps 763 mmHg 21%
15:00 +13°C° 0 mm 8 mps 763 mmHg 20%
16:00 +12°C° 0 mm 7 mps 763 mmHg 22%
17:00 +11°C° 0 mm 6 mps 763 mmHg 24%
18:00 +12°C° 0 mm 5 mps 763 mmHg 26%
19:00 +10°C° 0 mm 5 mps 763 mmHg 27%
20:00 +10°C° 0 mm 5 mps 763 mmHg 29%
21:00 +9°C° 0 mm 5 mps 763 mmHg 30%
22:00 +9°C° 0 mm 5 mps 763 mmHg 32%
23:00 +9°C° 0 mm 5 mps 763 mmHg 33%

23 January, Saturday

Time Temperature Precipitation Wind Pressure Humidity
00:00 +8°C° 0 mm 6 mps 763 mmHg 35%
01:00 +8°C° 0 mm 6 mps 763 mmHg 37%
02:00 +8°C° 0 mm 6 mps 762 mmHg 39%
03:00 +7°C° 0 mm 6 mps 762 mmHg 41%
04:00 +7°C° 0 mm 6 mps 762 mmHg 43%
05:00 +7°C° 0 mm 5 mps 763 mmHg 44%
06:00 +7°C° 0 mm 5 mps 763 mmHg 46%
07:00 +7°C° 0 mm 5 mps 763 mmHg 41%
08:00 +8°C° 0 mm 6 mps 764 mmHg 37%
09:00 +9°C° 0 mm 6 mps 764 mmHg 33%
10:00 +10°C° 0 mm 5 mps 764 mmHg 29%
11:00 +13°C° 0 mm 5 mps 764 mmHg 25%
12:00 +14°C° 0 mm 5 mps 764 mmHg 21%
13:00 +15°C° 0 mm 4 mps 763 mmHg 20%
14:00 +15°C° 0 mm 4 mps 763 mmHg 19%
15:00 +17°C° 0 mm 4 mps 762 mmHg 17%
16:00 +15°C° 0 mm 4 mps 762 mmHg 19%
17:00 +14°C° 0 mm 4 mps 762 mmHg 21%
18:00 +13°C° 0 mm 3 mps 762 mmHg 23%
19:00 +13°C° 0 mm 3 mps 762 mmHg 24%
20:00 +12°C° 0 mm 3 mps 762 mmHg 25%
21:00 +12°C° 0 mm 3 mps 763 mmHg 26%
22:00 +11°C° 0 mm 3 mps 762 mmHg 25%
23:00 +11°C° 0 mm 3 mps 762 mmHg 25%

24 January, Sunday

Time Temperature Precipitation Wind Pressure Humidity
00:00 +11°C° 0 mm 3 mps 762 mmHg 25%
01:00 +10°C° 0 mm 4 mps 762 mmHg 25%
02:00 +10°C° 0 mm 4 mps 762 mmHg 25%
03:00 +10°C° 0 mm 4 mps 762 mmHg 25%
04:00 +10°C° 0 mm 4 mps 762 mmHg 26%
05:00 +8°C° 0 mm 4 mps 762 mmHg 26%
06:00 +8°C° 0 mm 4 mps 762 mmHg 27%
07:00 +10°C° 0 mm 4 mps 763 mmHg 26%
08:00 +11°C° 0 mm 4 mps 763 mmHg 26%
09:00 +11°C° 0 mm 4 mps 763 mmHg 25%
10:00 +13°C° 0 mm 4 mps 763 mmHg 22%
11:00 +14°C° 0 mm 3 mps 763 mmHg 19%
12:00 +17°C° 0 mm 3 mps 762 mmHg 15%
13:00 +17°C° 0 mm 3 mps 762 mmHg 14%
14:00 +18°C° 0 mm 3 mps 762 mmHg 14%
15:00 +19°C° 0 mm 3 mps 761 mmHg 13%
16:00 +18°C° 0 mm 3 mps 761 mmHg 14%
17:00 +17°C° 0 mm 3 mps 761 mmHg 15%
18:00 +16°C° 0 mm 3 mps 761 mmHg 17%
19:00 +16°C° 0 mm 3 mps 761 mmHg 18%
20:00 +14°C° 0 mm 3 mps 761 mmHg 19%
21:00 +13°C° 0 mm 4 mps 761 mmHg 20%
22:00 +13°C° 0 mm 3 mps 761 mmHg 20%
23:00 +13°C° 0 mm 3 mps 761 mmHg 20%
Show more